Year,Month,Day,Hour,Minute,Value (Times are PST for windspeed in km/hr)
2020,10,15,00,00,1.60
2020,10,15,00,01,2.10
2020,10,15,00,02,2.00
2020,10,15,00,03,2.30
2020,10,15,00,04,2.10
2020,10,15,00,05,2.40
2020,10,15,00,06,2.30
2020,10,15,00,07,2.60
2020,10,15,00,08,3.00
2020,10,15,00,09,3.00
2020,10,15,00,10,3.00
2020,10,15,00,11,2.10
2020,10,15,00,12,1.90
2020,10,15,00,13,2.30
2020,10,15,00,14,2.10
2020,10,15,00,15,2.10
2020,10,15,00,16,1.40
2020,10,15,00,17,0.60
2020,10,15,00,18,1.40
2020,10,15,00,19,1.50
2020,10,15,00,20,0.90
2020,10,15,00,21,0.00
2020,10,15,00,22,0.00
2020,10,15,00,23,0.00
2020,10,15,00,24,0.00
2020,10,15,00,25,0.00
2020,10,15,00,26,0.00
2020,10,15,00,27,0.00
2020,10,15,00,28,0.00
2020,10,15,00,29,0.00
2020,10,15,00,30,0.00
2020,10,15,00,31,0.00
2020,10,15,00,32,0.00
2020,10,15,00,33,0.00
2020,10,15,00,34,0.00
2020,10,15,00,35,0.00
2020,10,15,00,36,0.00
2020,10,15,00,37,0.00
2020,10,15,00,38,0.00
2020,10,15,00,39,0.00
2020,10,15,00,40,0.00
2020,10,15,00,41,0.00
2020,10,15,00,42,0.00
2020,10,15,00,43,0.00
2020,10,15,00,44,0.00
2020,10,15,00,45,0.00
2020,10,15,00,46,0.00
2020,10,15,00,47,0.00
2020,10,15,00,48,0.00
2020,10,15,00,49,0.00
2020,10,15,00,50,0.00
2020,10,15,00,51,0.00
2020,10,15,00,52,0.00
2020,10,15,00,53,0.00
2020,10,15,00,54,0.00
2020,10,15,00,55,0.00
2020,10,15,00,56,0.00
2020,10,15,00,57,0.00
2020,10,15,00,58,0.00
2020,10,15,00,59,0.00
2020,10,15,01,00,0.00
2020,10,15,01,01,0.00
2020,10,15,01,02,0.00
2020,10,15,01,03,0.00
2020,10,15,01,04,0.00
2020,10,15,01,05,0.00
2020,10,15,01,06,0.00
2020,10,15,01,07,0.00
2020,10,15,01,08,0.00
2020,10,15,01,09,0.00
2020,10,15,01,10,0.00
2020,10,15,01,11,0.00
2020,10,15,01,12,0.00
2020,10,15,01,13,0.00
2020,10,15,01,14,0.00
2020,10,15,01,15,0.00
2020,10,15,01,16,2.60
2020,10,15,01,17,3.60
2020,10,15,01,18,4.00
2020,10,15,01,19,4.30
2020,10,15,01,20,3.90
2020,10,15,01,21,4.50
2020,10,15,01,22,4.70
2020,10,15,01,23,3.90
2020,10,15,01,24,3.90
2020,10,15,01,25,4.30
2020,10,15,01,26,3.00
2020,10,15,01,27,5.10
2020,10,15,01,28,5.00
2020,10,15,01,29,4.10
2020,10,15,01,30,5.80
2020,10,15,01,31,5.60
2020,10,15,01,32,5.60
2020,10,15,01,33,5.80
2020,10,15,01,34,5.10
2020,10,15,01,35,5.60
2020,10,15,01,36,5.50
2020,10,15,01,37,5.50
2020,10,15,01,38,5.40
2020,10,15,01,39,4.30
2020,10,15,01,40,4.80
2020,10,15,01,41,6.20
2020,10,15,01,42,5.40
2020,10,15,01,43,5.50
2020,10,15,01,44,5.50
2020,10,15,01,45,3.40
2020,10,15,01,46,5.00
2020,10,15,01,47,4.20
2020,10,15,01,48,4.00
2020,10,15,01,49,4.10
2020,10,15,01,50,4.10
2020,10,15,01,51,3.20
2020,10,15,01,52,3.80
2020,10,15,01,53,4.60
2020,10,15,01,54,4.90
2020,10,15,01,55,4.60
2020,10,15,01,56,4.30
2020,10,15,01,57,5.20
2020,10,15,01,58,4.80
2020,10,15,01,59,4.40
2020,10,15,02,00,5.10
2020,10,15,02,01,3.90
2020,10,15,02,02,4.30
2020,10,15,02,03,4.30
2020,10,15,02,04,4.20
2020,10,15,02,05,4.80
2020,10,15,02,06,3.50
2020,10,15,02,07,3.40
2020,10,15,02,08,4.40
2020,10,15,02,09,4.20
2020,10,15,02,10,4.00
2020,10,15,02,11,3.50
2020,10,15,02,12,4.70
2020,10,15,02,13,4.30
2020,10,15,02,14,4.40
2020,10,15,02,15,3.10
2020,10,15,02,16,3.10
2020,10,15,02,17,2.90
2020,10,15,02,18,3.60
2020,10,15,02,19,4.30
2020,10,15,02,20,3.00
2020,10,15,02,21,2.40
2020,10,15,02,22,1.60
2020,10,15,02,23,3.10
2020,10,15,02,24,1.40
2020,10,15,02,25,2.60
2020,10,15,02,26,1.70
2020,10,15,02,27,1.50
2020,10,15,02,28,2.00
2020,10,15,02,29,2.30
2020,10,15,02,30,2.00
2020,10,15,02,31,0.40
2020,10,15,02,32,0.10
2020,10,15,02,33,0.60
2020,10,15,02,34,0.60
2020,10,15,02,35,0.20
2020,10,15,02,36,0.20
2020,10,15,02,37,0.10
2020,10,15,02,38,1.40
2020,10,15,02,39,1.70
2020,10,15,02,40,2.30
2020,10,15,02,41,2.10
2020,10,15,02,42,1.10
2020,10,15,02,43,1.60
2020,10,15,02,44,1.90
2020,10,15,02,45,2.10
2020,10,15,02,46,3.10
2020,10,15,02,47,4.10
2020,10,15,02,48,3.10
2020,10,15,02,49,3.30
2020,10,15,02,50,3.40
2020,10,15,02,51,2.20
2020,10,15,02,52,2.60
2020,10,15,02,53,2.50
2020,10,15,02,54,2.30
2020,10,15,02,55,2.40
2020,10,15,02,56,1.60
2020,10,15,02,57,2.40
2020,10,15,02,58,1.80
2020,10,15,02,59,1.30
2020,10,15,03,00,1.90
2020,10,15,03,01,2.70
2020,10,15,03,02,1.60
2020,10,15,03,03,2.40
2020,10,15,03,04,2.80
2020,10,15,03,05,3.10
2020,10,15,03,06,3.90
2020,10,15,03,07,3.10
2020,10,15,03,08,2.40
2020,10,15,03,09,2.30
2020,10,15,03,10,3.80
2020,10,15,03,11,4.00
2020,10,15,03,12,3.90
2020,10,15,03,13,3.60
2020,10,15,03,14,3.70
2020,10,15,03,15,4.20
2020,10,15,03,16,3.20
2020,10,15,03,17,3.00
2020,10,15,03,18,3.90
2020,10,15,03,19,3.50
2020,10,15,03,20,3.50
2020,10,15,03,21,1.90
2020,10,15,03,22,2.00
2020,10,15,03,23,3.50
2020,10,15,03,24,2.30
2020,10,15,03,25,2.50
2020,10,15,03,26,2.10
2020,10,15,03,27,3.10
2020,10,15,03,28,2.10
2020,10,15,03,29,1.40
2020,10,15,03,30,3.80
2020,10,15,03,31,2.80
2020,10,15,03,32,2.70
2020,10,15,03,33,2.70
2020,10,15,03,34,2.40
2020,10,15,03,35,2.40
2020,10,15,03,36,3.20
2020,10,15,03,37,3.40
2020,10,15,03,38,3.50
2020,10,15,03,39,4.70
2020,10,15,03,40,4.50
2020,10,15,03,41,4.00
2020,10,15,03,42,3.80
2020,10,15,03,43,3.30
2020,10,15,03,44,4.30
2020,10,15,03,45,3.60
2020,10,15,03,46,3.30
2020,10,15,03,47,3.40
2020,10,15,03,48,2.80
2020,10,15,03,49,3.40
2020,10,15,03,50,2.30
2020,10,15,03,51,2.10
2020,10,15,03,52,3.60
2020,10,15,03,53,1.20
2020,10,15,03,54,2.10
2020,10,15,03,55,4.30
2020,10,15,03,56,3.90
2020,10,15,03,57,2.30
2020,10,15,03,58,1.70
2020,10,15,03,59,1.50
2020,10,15,04,00,2.10
2020,10,15,04,01,1.80
2020,10,15,04,02,1.90
2020,10,15,04,03,4.00
2020,10,15,04,04,3.80
2020,10,15,04,05,4.30
2020,10,15,04,06,3.20
2020,10,15,04,07,3.40
2020,10,15,04,08,4.20
2020,10,15,04,09,3.50
2020,10,15,04,10,3.40
2020,10,15,04,11,4.30
2020,10,15,04,12,4.70
2020,10,15,04,13,3.60
2020,10,15,04,14,4.30
2020,10,15,04,15,3.20
2020,10,15,04,16,3.70
2020,10,15,04,17,2.80
2020,10,15,04,18,4.00
2020,10,15,04,19,1.80
2020,10,15,04,20,4.10
2020,10,15,04,21,2.70
2020,10,15,04,22,2.90
2020,10,15,04,23,2.60
2020,10,15,04,24,3.10
2020,10,15,04,25,2.70
2020,10,15,04,26,2.20
2020,10,15,04,27,2.30
2020,10,15,04,28,2.30
2020,10,15,04,29,3.20
2020,10,15,04,30,3.90
2020,10,15,04,31,3.70
2020,10,15,04,32,4.10
2020,10,15,04,33,3.10
2020,10,15,04,34,3.30
2020,10,15,04,35,3.50
2020,10,15,04,36,3.80
2020,10,15,04,37,2.60
2020,10,15,04,38,3.50
2020,10,15,04,39,3.00
2020,10,15,04,40,4.10
2020,10,15,04,41,5.10
2020,10,15,04,42,3.70
2020,10,15,04,43,3.40
2020,10,15,04,44,3.80
2020,10,15,04,45,4.20
2020,10,15,04,46,3.90
2020,10,15,04,47,4.00
2020,10,15,04,48,1.90
2020,10,15,04,49,2.70
2020,10,15,04,50,3.80
2020,10,15,04,51,4.50
2020,10,15,04,52,3.20
2020,10,15,04,53,5.50
2020,10,15,04,54,4.40
2020,10,15,04,55,5.10
2020,10,15,04,56,4.60
2020,10,15,04,57,5.60
2020,10,15,04,58,4.30
2020,10,15,04,59,4.50
2020,10,15,05,00,5.10
2020,10,15,05,01,6.00
2020,10,15,05,02,5.60
2020,10,15,05,03,4.60
2020,10,15,05,04,4.20
2020,10,15,05,05,4.10
2020,10,15,05,06,5.30
2020,10,15,05,07,4.30
2020,10,15,05,08,4.30
2020,10,15,05,09,5.60
2020,10,15,05,10,4.30
2020,10,15,05,11,4.20
2020,10,15,05,12,3.10
2020,10,15,05,13,5.10
2020,10,15,05,14,4.50
2020,10,15,05,15,4.50
2020,10,15,05,16,4.30
2020,10,15,05,17,3.80
2020,10,15,05,18,4.50
2020,10,15,05,19,4.70
2020,10,15,05,20,4.70
2020,10,15,05,21,5.10
2020,10,15,05,22,4.40
2020,10,15,05,23,4.20
2020,10,15,05,24,5.40
2020,10,15,05,25,5.10
2020,10,15,05,26,5.10
2020,10,15,05,27,4.70
2020,10,15,05,28,4.70
2020,10,15,05,29,4.40
2020,10,15,05,30,3.80
2020,10,15,05,31,2.70
2020,10,15,05,32,2.60
2020,10,15,05,33,2.20
2020,10,15,05,34,2.60
2020,10,15,05,35,2.60
2020,10,15,05,36,3.50
2020,10,15,05,37,2.80
2020,10,15,05,38,3.20
2020,10,15,05,39,4.20
2020,10,15,05,40,4.30
2020,10,15,05,41,3.80
2020,10,15,05,42,4.40
2020,10,15,05,43,3.90
2020,10,15,05,44,4.10
2020,10,15,05,45,3.00
2020,10,15,05,46,4.30
2020,10,15,05,47,4.70
2020,10,15,05,48,3.90
2020,10,15,05,49,3.90
2020,10,15,05,50,4.80
2020,10,15,05,51,4.30
2020,10,15,05,52,4.40
2020,10,15,05,53,3.50
2020,10,15,05,54,4.40
2020,10,15,05,55,4.20
2020,10,15,05,56,4.70
2020,10,15,05,57,3.80
2020,10,15,05,58,4.70
2020,10,15,05,59,3.10
2020,10,15,06,00,4.40
2020,10,15,06,01,3.90
2020,10,15,06,02,3.70
2020,10,15,06,03,4.00
2020,10,15,06,04,4.30
2020,10,15,06,05,4.00
2020,10,15,06,06,3.00
2020,10,15,06,07,2.70
2020,10,15,06,08,3.10
2020,10,15,06,09,2.90
2020,10,15,06,10,3.50
2020,10,15,06,11,2.60
2020,10,15,06,12,2.80
2020,10,15,06,13,3.30
2020,10,15,06,14,3.60
2020,10,15,06,15,3.50
2020,10,15,06,16,4.10
2020,10,15,06,17,2.80
2020,10,15,06,18,2.40
2020,10,15,06,19,4.30
2020,10,15,06,20,3.60
2020,10,15,06,21,3.20
2020,10,15,06,22,3.40
2020,10,15,06,23,4.10
2020,10,15,06,24,3.90
2020,10,15,06,25,4.40
2020,10,15,06,26,4.60
2020,10,15,06,27,5.40
2020,10,15,06,28,4.60
2020,10,15,06,29,4.70
2020,10,15,06,30,4.40
2020,10,15,06,31,4.70
2020,10,15,06,32,3.80
2020,10,15,06,33,3.30
2020,10,15,06,34,3.60
2020,10,15,06,35,3.00
2020,10,15,06,36,2.30
2020,10,15,06,37,3.10
2020,10,15,06,38,2.60
2020,10,15,06,39,2.20
2020,10,15,06,40,2.50
2020,10,15,06,41,2.20
2020,10,15,06,42,2.20
2020,10,15,06,43,2.10
2020,10,15,06,44,2.20
2020,10,15,06,45,2.30
2020,10,15,06,46,2.30
2020,10,15,06,47,2.00
2020,10,15,06,48,1.90
2020,10,15,06,49,1.80
2020,10,15,06,50,1.10
2020,10,15,06,51,1.60
2020,10,15,06,52,1.10
2020,10,15,06,53,0.60
2020,10,15,06,54,2.00
2020,10,15,06,55,2.70
2020,10,15,06,56,4.50
2020,10,15,06,57,4.80
2020,10,15,06,58,4.30
2020,10,15,06,59,3.50
2020,10,15,07,00,3.30
2020,10,15,07,01,3.00
2020,10,15,07,02,3.00
2020,10,15,07,03,3.10
2020,10,15,07,04,4.20
2020,10,15,07,05,3.40
2020,10,15,07,06,3.70
2020,10,15,07,07,3.50
2020,10,15,07,08,3.40
2020,10,15,07,09,3.10
2020,10,15,07,10,3.40
2020,10,15,07,11,3.20
2020,10,15,07,12,3.00
2020,10,15,07,13,3.00
2020,10,15,07,14,2.70
2020,10,15,07,15,2.60
2020,10,15,07,16,3.00
2020,10,15,07,17,2.40
2020,10,15,07,18,3.00
2020,10,15,07,19,2.20
2020,10,15,07,20,3.00
2020,10,15,07,21,2.10
2020,10,15,07,22,1.40
2020,10,15,07,23,1.90
2020,10,15,07,24,1.90
2020,10,15,07,25,1.90
2020,10,15,07,26,3.20
2020,10,15,07,27,3.70
2020,10,15,07,28,3.10
2020,10,15,07,29,3.70
2020,10,15,07,30,3.90
2020,10,15,07,31,3.10
2020,10,15,07,32,3.20
2020,10,15,07,33,2.60
2020,10,15,07,34,2.90
2020,10,15,07,35,3.00
2020,10,15,07,36,2.50
2020,10,15,07,37,2.90
2020,10,15,07,38,3.00
2020,10,15,07,39,2.60
2020,10,15,07,40,2.60
2020,10,15,07,41,2.50
2020,10,15,07,42,3.30
2020,10,15,07,43,4.00
2020,10,15,07,44,5.10
2020,10,15,07,45,3.80
2020,10,15,07,46,4.30
2020,10,15,07,47,4.10
2020,10,15,07,48,4.40
2020,10,15,07,49,4.10
2020,10,15,07,50,4.50
2020,10,15,07,51,3.20
2020,10,15,07,52,2.90
2020,10,15,07,53,3.00
2020,10,15,07,54,2.60
2020,10,15,07,55,2.70
2020,10,15,07,56,3.10
2020,10,15,07,57,3.00
2020,10,15,07,58,2.10
2020,10,15,07,59,2.40
2020,10,15,08,00,2.40
2020,10,15,08,01,2.20
2020,10,15,08,02,2.20
2020,10,15,08,03,2.30
2020,10,15,08,04,2.80
2020,10,15,08,05,2.00
2020,10,15,08,06,2.10
2020,10,15,08,07,2.50
2020,10,15,08,08,2.10
2020,10,15,08,09,1.70
2020,10,15,08,10,1.70
2020,10,15,08,11,1.60
2020,10,15,08,12,1.60
2020,10,15,08,13,1.70
2020,10,15,08,14,3.10
2020,10,15,08,15,2.00
2020,10,15,08,16,2.10
2020,10,15,08,17,1.40
2020,10,15,08,18,1.80
2020,10,15,08,19,1.90
2020,10,15,08,20,1.90
2020,10,15,08,21,1.90
2020,10,15,08,22,1.10
2020,10,15,08,23,1.40
2020,10,15,08,24,0.70
2020,10,15,08,25,0.60
2020,10,15,08,26,0.00
2020,10,15,08,27,0.10
2020,10,15,08,28,1.10
2020,10,15,08,29,0.40
2020,10,15,08,30,1.40
2020,10,15,08,31,1.50
2020,10,15,08,32,0.20
2020,10,15,08,33,0.00
2020,10,15,08,34,0.70
2020,10,15,08,35,1.50
2020,10,15,08,36,3.40
2020,10,15,08,37,1.70
2020,10,15,08,38,0.20
2020,10,15,08,39,0.10
2020,10,15,08,40,0.10
2020,10,15,08,41,0.30
2020,10,15,08,42,0.00
2020,10,15,08,43,0.40
2020,10,15,08,44,0.00
2020,10,15,08,45,0.20
2020,10,15,08,46,0.60
2020,10,15,08,47,0.60
2020,10,15,08,48,1.30
2020,10,15,08,49,1.70
2020,10,15,08,50,1.40
2020,10,15,08,51,1.20
2020,10,15,08,52,1.70
2020,10,15,08,53,1.40
2020,10,15,08,54,1.00
2020,10,15,08,55,0.40
2020,10,15,08,56,0.10
2020,10,15,08,57,2.30
2020,10,15,08,58,0.70
2020,10,15,08,59,0.00
2020,10,15,09,00,0.00
2020,10,15,09,01,0.00
2020,10,15,09,02,0.00
2020,10,15,09,03,0.00
2020,10,15,09,04,0.00
2020,10,15,09,05,0.00
2020,10,15,09,06,0.00
2020,10,15,09,07,0.80
2020,10,15,09,08,1.50
2020,10,15,09,09,1.00
2020,10,15,09,10,0.70
2020,10,15,09,11,0.60
2020,10,15,09,12,0.00
2020,10,15,09,13,0.00
2020,10,15,09,14,0.00
2020,10,15,09,15,2.70
2020,10,15,09,16,4.30
2020,10,15,09,17,2.90
2020,10,15,09,18,2.50
2020,10,15,09,19,2.70
2020,10,15,09,20,1.70
2020,10,15,09,21,1.80
2020,10,15,09,22,1.20
2020,10,15,09,23,1.80
2020,10,15,09,24,1.20
2020,10,15,09,25,0.60
2020,10,15,09,26,0.60
2020,10,15,09,27,0.60
2020,10,15,09,28,0.10
2020,10,15,09,29,0.10
2020,10,15,09,30,0.20
2020,10,15,09,31,0.00
2020,10,15,09,32,0.00
2020,10,15,09,33,0.00
2020,10,15,09,34,0.00
2020,10,15,09,35,0.10
2020,10,15,09,36,0.20
2020,10,15,09,37,0.40
2020,10,15,09,38,0.00
2020,10,15,09,39,0.00
2020,10,15,09,40,0.00
2020,10,15,09,41,0.10
2020,10,15,09,42,0.10
2020,10,15,09,43,0.00
2020,10,15,09,44,0.00
2020,10,15,09,45,0.00
2020,10,15,09,46,0.30
2020,10,15,09,47,0.60
2020,10,15,09,48,0.70
2020,10,15,09,49,0.70
2020,10,15,09,50,0.00
2020,10,15,09,51,0.00
2020,10,15,09,52,0.10
2020,10,15,09,53,0.00
2020,10,15,09,54,0.80
2020,10,15,09,55,1.20
2020,10,15,09,56,0.10
2020,10,15,09,57,0.00
2020,10,15,09,58,0.10
2020,10,15,09,59,1.50
2020,10,15,10,00,1.50
2020,10,15,10,01,0.90
2020,10,15,10,02,1.00
2020,10,15,10,03,0.40
2020,10,15,10,04,1.50
2020,10,15,10,05,2.10
2020,10,15,10,06,1.50
2020,10,15,10,07,0.80
2020,10,15,10,08,1.70
2020,10,15,10,09,1.90
2020,10,15,10,10,2.20
2020,10,15,10,11,0.60
2020,10,15,10,12,0.60
2020,10,15,10,13,1.00
2020,10,15,10,14,2.20
2020,10,15,10,15,1.60
2020,10,15,10,16,0.50
2020,10,15,10,17,0.90
2020,10,15,10,18,2.70
2020,10,15,10,19,1.00
2020,10,15,10,20,1.30
2020,10,15,10,21,0.10
2020,10,15,10,22,0.00
2020,10,15,10,23,0.10
2020,10,15,10,24,0.30
2020,10,15,10,25,1.80
2020,10,15,10,26,1.90
2020,10,15,10,27,0.40
2020,10,15,10,28,0.10
2020,10,15,10,29,0.00
2020,10,15,10,30,0.00
2020,10,15,10,31,0.40
2020,10,15,10,32,1.20
2020,10,15,10,33,1.10
2020,10,15,10,34,0.50
2020,10,15,10,35,0.00
2020,10,15,10,36,0.20
2020,10,15,10,37,0.80
2020,10,15,10,38,1.40
2020,10,15,10,39,0.60
2020,10,15,10,40,0.50
2020,10,15,10,41,1.00
2020,10,15,10,42,1.10
2020,10,15,10,43,3.50
2020,10,15,10,44,2.10
2020,10,15,10,45,0.70
2020,10,15,10,46,1.90
2020,10,15,10,47,1.40
2020,10,15,10,48,1.40
2020,10,15,10,49,1.30
2020,10,15,10,50,2.20
2020,10,15,10,51,0.90
2020,10,15,10,52,2.50
2020,10,15,10,53,1.90
2020,10,15,10,54,1.00
2020,10,15,10,55,1.90
2020,10,15,10,56,1.40
2020,10,15,10,57,2.30
2020,10,15,10,58,0.90
2020,10,15,10,59,2.40
2020,10,15,11,00,2.50
2020,10,15,11,01,3.10
2020,10,15,11,02,4.90
2020,10,15,11,03,2.70
2020,10,15,11,04,1.70
2020,10,15,11,05,2.40
2020,10,15,11,06,1.60
2020,10,15,11,07,3.10
2020,10,15,11,08,3.00
2020,10,15,11,09,2.30
2020,10,15,11,10,1.50
2020,10,15,11,11,1.70
2020,10,15,11,12,1.50
2020,10,15,11,13,1.40
2020,10,15,11,14,1.00
2020,10,15,11,15,0.70
2020,10,15,11,16,0.20
2020,10,15,11,17,0.40
2020,10,15,11,18,1.50
2020,10,15,11,19,0.50
2020,10,15,11,20,1.20
2020,10,15,11,21,1.10
2020,10,15,11,22,0.80
2020,10,15,11,23,0.90
2020,10,15,11,24,2.60
2020,10,15,11,25,2.20
2020,10,15,11,26,2.00
2020,10,15,11,27,1.40
2020,10,15,11,28,1.80
2020,10,15,11,29,4.20
2020,10,15,11,30,4.30
2020,10,15,11,31,3.20
2020,10,15,11,32,6.10
2020,10,15,11,33,4.40
2020,10,15,11,34,5.00
2020,10,15,11,35,3.40
2020,10,15,11,36,2.20
2020,10,15,11,37,1.80
2020,10,15,11,38,1.10
2020,10,15,11,39,1.10
2020,10,15,11,40,2.50
2020,10,15,11,41,2.30
2020,10,15,11,42,1.50
2020,10,15,11,43,1.30
2020,10,15,11,44,1.40
2020,10,15,11,45,3.40
2020,10,15,11,46,4.60
2020,10,15,11,47,2.70
2020,10,15,11,48,2.80
2020,10,15,11,49,1.50
2020,10,15,11,50,2.70
2020,10,15,11,51,2.80
2020,10,15,11,52,1.80
2020,10,15,11,53,2.90
2020,10,15,11,54,1.90
2020,10,15,11,55,0.90
2020,10,15,11,56,2.80
2020,10,15,11,57,4.00
2020,10,15,11,58,1.40
2020,10,15,11,59,1.50
2020,10,15,12,00,1.70
2020,10,15,12,01,0.80
2020,10,15,12,02,0.20
2020,10,15,12,03,1.90
2020,10,15,12,04,1.50
2020,10,15,12,05,0.40
2020,10,15,12,06,0.90
2020,10,15,12,07,1.40
2020,10,15,12,08,2.40
2020,10,15,12,09,1.30
2020,10,15,12,10,0.20
2020,10,15,12,11,2.40
2020,10,15,12,12,2.10
2020,10,15,12,13,1.00
2020,10,15,12,14,5.30
2020,10,15,12,15,1.20
2020,10,15,12,16,0.00
2020,10,15,12,17,0.70
2020,10,15,12,18,0.80
2020,10,15,12,19,1.00
2020,10,15,12,20,1.60
2020,10,15,12,21,1.70
2020,10,15,12,22,1.70
2020,10,15,12,23,1.00
2020,10,15,12,24,1.20
2020,10,15,12,25,0.40
2020,10,15,12,26,2.20
2020,10,15,12,27,1.40
2020,10,15,12,28,0.90
2020,10,15,12,29,0.90
2020,10,15,12,30,1.10
2020,10,15,12,31,2.00
2020,10,15,12,32,1.90
2020,10,15,12,33,1.40
2020,10,15,12,34,0.90
2020,10,15,12,35,1.10
2020,10,15,12,36,1.70
2020,10,15,12,37,1.50
2020,10,15,12,38,1.20
2020,10,15,12,39,2.10
2020,10,15,12,40,0.70
2020,10,15,12,41,1.10
2020,10,15,12,42,2.10
2020,10,15,12,43,2.10
2020,10,15,12,44,0.90
2020,10,15,12,45,1.80
2020,10,15,12,46,1.00
2020,10,15,12,47,1.40
2020,10,15,12,48,1.10
2020,10,15,12,49,2.20
2020,10,15,12,50,1.30
2020,10,15,12,51,2.40
2020,10,15,12,52,4.60
2020,10,15,12,53,2.70
2020,10,15,12,54,2.00
2020,10,15,12,55,0.80
2020,10,15,12,56,0.70
2020,10,15,12,57,1.80
2020,10,15,12,58,1.00
2020,10,15,12,59,0.50
2020,10,15,13,00,0.10
2020,10,15,13,01,2.90
2020,10,15,13,02,1.40
2020,10,15,13,03,1.50
2020,10,15,13,04,1.10
2020,10,15,13,05,0.90
2020,10,15,13,06,0.70
2020,10,15,13,07,2.40
2020,10,15,13,08,2.30
2020,10,15,13,09,3.10
2020,10,15,13,10,1.30
2020,10,15,13,11,3.50
2020,10,15,13,12,2.30
2020,10,15,13,13,3.20
2020,10,15,13,14,2.60
2020,10,15,13,15,2.30
2020,10,15,13,16,1.50
2020,10,15,13,17,2.50
2020,10,15,13,18,4.80
2020,10,15,13,19,2.20
2020,10,15,13,20,1.30
2020,10,15,13,21,3.00
2020,10,15,13,22,2.00
2020,10,15,13,23,5.10
2020,10,15,13,24,2.30
2020,10,15,13,25,1.90
2020,10,15,13,26,2.40
2020,10,15,13,27,4.10
2020,10,15,13,28,2.70
2020,10,15,13,29,1.90
2020,10,15,13,30,3.70
2020,10,15,13,31,2.50
2020,10,15,13,32,3.30
2020,10,15,13,33,1.40
2020,10,15,13,34,1.10
2020,10,15,13,35,1.30
2020,10,15,13,36,2.80
2020,10,15,13,37,2.40
2020,10,15,13,38,4.30
2020,10,15,13,39,2.00
2020,10,15,13,40,2.30
2020,10,15,13,41,4.30
2020,10,15,13,42,1.50
2020,10,15,13,43,1.30
2020,10,15,13,44,1.00
2020,10,15,13,45,0.00
2020,10,15,13,46,0.00
2020,10,15,13,47,0.10
2020,10,15,13,48,1.00
2020,10,15,13,49,1.20
2020,10,15,13,50,0.60
2020,10,15,13,51,1.10
2020,10,15,13,52,0.20
2020,10,15,13,53,0.00
2020,10,15,13,54,0.00
2020,10,15,13,55,0.60
2020,10,15,13,56,1.20
2020,10,15,13,57,0.30
2020,10,15,13,58,1.00
2020,10,15,13,59,0.40
2020,10,15,14,00,1.10
2020,10,15,14,01,0.80
2020,10,15,14,02,1.00
2020,10,15,14,03,2.10
2020,10,15,14,04,1.40
2020,10,15,14,05,0.70
2020,10,15,14,06,1.50
2020,10,15,14,07,1.10
2020,10,15,14,08,0.90
2020,10,15,14,09,2.20
2020,10,15,14,10,1.00
2020,10,15,14,11,1.20
2020,10,15,14,12,2.50
2020,10,15,14,13,2.70
2020,10,15,14,14,1.00
2020,10,15,14,15,2.20
2020,10,15,14,16,1.70
2020,10,15,14,17,1.30
2020,10,15,14,18,1.50
2020,10,15,14,19,0.60
2020,10,15,14,20,2.90
2020,10,15,14,21,3.30
2020,10,15,14,22,3.40
2020,10,15,14,23,2.10
2020,10,15,14,24,1.10
2020,10,15,14,25,0.50
2020,10,15,14,26,2.00
2020,10,15,14,27,2.90
2020,10,15,14,28,0.80
2020,10,15,14,29,0.50
2020,10,15,14,30,0.80
2020,10,15,14,31,1.20
2020,10,15,14,32,1.40
2020,10,15,14,33,1.90
2020,10,15,14,34,0.90
2020,10,15,14,35,2.50
2020,10,15,14,36,0.30
2020,10,15,14,37,1.50
2020,10,15,14,38,0.00
2020,10,15,14,39,3.40
2020,10,15,14,40,2.30
2020,10,15,14,41,2.20
2020,10,15,14,42,2.40
2020,10,15,14,43,2.00
2020,10,15,14,44,1.10
2020,10,15,14,45,1.00
2020,10,15,14,46,2.00
2020,10,15,14,47,2.10
2020,10,15,14,48,1.50
2020,10,15,14,49,0.30
2020,10,15,14,50,0.80
2020,10,15,14,51,0.20
2020,10,15,14,52,1.40
2020,10,15,14,53,1.00
2020,10,15,14,54,1.80
2020,10,15,14,55,1.50
2020,10,15,14,56,1.50
2020,10,15,14,57,0.70
2020,10,15,14,58,1.40
2020,10,15,14,59,3.80
2020,10,15,15,00,2.70
2020,10,15,15,01,4.20
2020,10,15,15,02,2.50
2020,10,15,15,03,0.50
2020,10,15,15,04,0.30
2020,10,15,15,05,1.10
2020,10,15,15,06,0.20
2020,10,15,15,07,1.10
2020,10,15,15,08,0.80
2020,10,15,15,09,1.10
2020,10,15,15,10,2.70
2020,10,15,15,11,1.60
2020,10,15,15,12,1.40
2020,10,15,15,13,0.10
2020,10,15,15,14,0.00
2020,10,15,15,15,0.20
2020,10,15,15,16,2.00
2020,10,15,15,17,1.30
2020,10,15,15,18,1.80
2020,10,15,15,19,0.80
2020,10,15,15,20,0.70
2020,10,15,15,21,1.10
2020,10,15,15,22,0.20
2020,10,15,15,23,0.10
2020,10,15,15,24,0.60
2020,10,15,15,25,1.70
2020,10,15,15,26,1.60
2020,10,15,15,27,2.70
2020,10,15,15,28,2.10
2020,10,15,15,29,1.00
2020,10,15,15,30,1.50
2020,10,15,15,31,1.00
2020,10,15,15,32,0.60
2020,10,15,15,33,0.20
2020,10,15,15,34,1.60
2020,10,15,15,35,1.00
2020,10,15,15,36,0.20
2020,10,15,15,37,1.90
2020,10,15,15,38,0.90
2020,10,15,15,39,0.40
2020,10,15,15,40,0.90
2020,10,15,15,41,1.50
2020,10,15,15,42,0.80
2020,10,15,15,43,1.20
2020,10,15,15,44,1.40
2020,10,15,15,45,2.40
2020,10,15,15,46,2.70
2020,10,15,15,47,2.70
2020,10,15,15,48,1.30
2020,10,15,15,49,0.60
2020,10,15,15,50,0.40
2020,10,15,15,51,0.30
2020,10,15,15,52,0.30
2020,10,15,15,53,0.40
2020,10,15,15,54,0.20
2020,10,15,15,55,0.70
2020,10,15,15,56,1.30
2020,10,15,15,57,1.20
2020,10,15,15,58,0.10
2020,10,15,15,59,0.20
2020,10,15,16,00,0.00
2020,10,15,16,01,0.00
2020,10,15,16,02,0.90
2020,10,15,16,03,0.50
2020,10,15,16,04,0.30
2020,10,15,16,05,0.00
2020,10,15,16,06,0.20
2020,10,15,16,07,0.40
2020,10,15,16,08,1.20
2020,10,15,16,09,2.40
2020,10,15,16,10,1.00
2020,10,15,16,11,1.20
2020,10,15,16,12,1.90
2020,10,15,16,13,0.90
2020,10,15,16,14,2.60
2020,10,15,16,15,2.90
2020,10,15,16,16,2.60
2020,10,15,16,17,2.30
2020,10,15,16,18,2.40
2020,10,15,16,19,1.20
2020,10,15,16,20,2.30
2020,10,15,16,21,2.70
2020,10,15,16,22,2.20
2020,10,15,16,23,1.20
2020,10,15,16,24,0.50
2020,10,15,16,25,0.00
2020,10,15,16,26,0.10
2020,10,15,16,27,1.50
2020,10,15,16,28,0.70
2020,10,15,16,29,1.40
2020,10,15,16,30,1.20
2020,10,15,16,31,0.00
2020,10,15,16,32,1.20
2020,10,15,16,33,1.30
2020,10,15,16,34,1.90
2020,10,15,16,35,1.40
2020,10,15,16,36,0.50
2020,10,15,16,37,0.30
2020,10,15,16,38,1.20
2020,10,15,16,39,0.50
2020,10,15,16,40,0.90
2020,10,15,16,41,0.70
2020,10,15,16,42,0.10
2020,10,15,16,43,0.10
2020,10,15,16,44,0.20
2020,10,15,16,45,0.00
2020,10,15,16,46,0.00
2020,10,15,16,47,0.00
2020,10,15,16,48,0.00
2020,10,15,16,49,0.00
2020,10,15,16,50,0.00
2020,10,15,16,51,0.00
2020,10,15,16,52,1.60
2020,10,15,16,53,1.90
2020,10,15,16,54,0.10
2020,10,15,16,55,0.10
2020,10,15,16,56,0.00
2020,10,15,16,57,0.00
2020,10,15,16,58,0.00
2020,10,15,16,59,0.00
2020,10,15,17,00,0.00
2020,10,15,17,01,0.00
2020,10,15,17,02,0.00
2020,10,15,17,03,0.00
2020,10,15,17,04,0.00
2020,10,15,17,05,1.00
2020,10,15,17,06,0.90
2020,10,15,17,07,0.50
2020,10,15,17,08,1.00
2020,10,15,17,09,0.50
2020,10,15,17,10,1.90
2020,10,15,17,11,1.80
2020,10,15,17,12,1.10
2020,10,15,17,13,0.80
2020,10,15,17,14,0.30
2020,10,15,17,15,0.80
2020,10,15,17,16,0.50
2020,10,15,17,17,3.20
2020,10,15,17,18,2.10
2020,10,15,17,19,1.70
2020,10,15,17,20,1.10
2020,10,15,17,21,2.10
2020,10,15,17,22,1.60
2020,10,15,17,23,1.60
2020,10,15,17,24,1.30
2020,10,15,17,25,2.00
2020,10,15,17,26,0.30
2020,10,15,17,27,0.20
2020,10,15,17,28,0.60
2020,10,15,17,29,0.00
2020,10,15,17,30,0.20
2020,10,15,17,31,0.80
2020,10,15,17,32,0.60
2020,10,15,17,33,0.00
2020,10,15,17,34,0.00
2020,10,15,17,35,0.00
2020,10,15,17,36,0.00
2020,10,15,17,37,0.00
2020,10,15,17,38,0.00
2020,10,15,17,39,0.00
2020,10,15,17,40,0.00
2020,10,15,17,41,0.00
2020,10,15,17,42,0.00
2020,10,15,17,43,0.00
2020,10,15,17,44,0.00
2020,10,15,17,45,0.00
2020,10,15,17,46,0.00
2020,10,15,17,47,0.00
2020,10,15,17,48,0.00
2020,10,15,17,49,0.00
2020,10,15,17,50,0.00
2020,10,15,17,51,0.00
2020,10,15,17,52,0.00
2020,10,15,17,53,0.00
2020,10,15,17,54,0.00
2020,10,15,17,55,0.00
2020,10,15,17,56,0.00
2020,10,15,17,57,0.00
2020,10,15,17,58,0.00
2020,10,15,17,59,0.00
2020,10,15,18,00,0.00
2020,10,15,18,01,0.00
2020,10,15,18,02,0.00
2020,10,15,18,03,0.00
2020,10,15,18,04,0.00
2020,10,15,18,05,0.00
2020,10,15,18,06,0.00